Flag for U.S.A. Weather past 2 weeks in Provincetown, Massachusetts, U.S.A.

Now
52 °F

Mostly cloudy.


Feels Like: 47 °F
Forecast: 51 / 55 °F
Wind: 15 mph from Northeast

Location: Provincetown Weather Reporting Station

Current Time: Jun 2, 2015 at 9:42:55 AM

Latest Report: Jun 2, 2015 at 9:15 AM


Visibility: 9 mi

Pressure: 30.14 "Hg

Humidity: 82%

Dew point: 46 °F

Location of ProvincetownLocation

Historic Weather in Provincetown — Graph

°F

Provincetown temperature yesterday

Maximum temperature yesterday: 52 °F (at 12:15 AM)
Minimum temperature yesterday: 48 °F (at 2:55 PM)
Average temperature yesterday: 50 °F

Past Weeks' High & Low Weather Summary

 TemperatureHumidityPressure
High75 °F (May 30, 1:15 PM)94% (May 18, 11:35 PM)30.34 "Hg (May 18, 11:35 PM)
Low46 °F (May 23, 12:15 AM)31% (May 23, 2:55 PM)29.67 "Hg (May 20, 12:55 AM)
Average59 °F73%30.12 "Hg
* Reported May 18 8:15 AM — Jun 2 8:35 AM, Provincetown, Weather by CustomWeather, © 2015

Note: Actual official high and low records may vary slightly from our data, if they occured in-between our weather recording intervals... More about our weather records

Advertising

Provincetown weather history for previous 24 hours

 ConditionsComfort  
Time TempWeatherWind HumidityBarometerVisibility
8:35 AM
Tue, Jun 2
52 °FLow clouds.14 mph77%30.15 "Hg10 mi
8:15 AM52 °FLow clouds.13 mph77%30.15 "Hg7 mi
7:55 AM52 °FLow clouds.12 mph77%30.16 "Hg8 mi
7:35 AM52 °FMostly cloudy.15 mph77%30.15 "Hg8 mi
7:15 AM52 °FMostly cloudy.14 mph77%30.14 "Hg10 mi
6:55 AM52 °FLow clouds.10 mph82%30.14 "Hg10 mi
6:35 AM52 °FLow clouds.13 mph77%30.13 "Hg9 mi
6:15 AM52 °FLow clouds.15 mph77%30.13 "Hg3 mi
5:55 AM50 °FLow clouds.13 mph82%30.14 "Hg7 mi
5:35 AM50 °FLow clouds.13 mph82%30.13 "Hg5 mi
5:15 AM50 °FLow clouds.13 mph82%30.13 "Hg6 mi
4:55 AM50 °FMostly cloudy.13 mph82%30.13 "Hg9 mi
4:35 AM50 °FMostly cloudy.8 mph82%30.15 "Hg10 mi
4:15 AM50 °FMostly cloudy.9 mph82%30.15 "Hg6 mi
3:55 AM50 °FOvercast.13 mph82%30.15 "Hg4 mi
3:35 AM48 °FMostly cloudy.12 mph87%30.16 "Hg3 mi
3:15 AM48 °FMostly cloudy.10 mph87%30.15 "Hg4 mi
2:55 AM48 °FOvercast.12 mph87%30.14 "Hg5 mi
2:35 AM48 °FLow clouds.14 mph87%30.16 "Hg5 mi
2:15 AM48 °FLow clouds.9 mph87%30.18 "Hg7 mi
1:55 AM48 °FLow clouds.12 mph87%30.18 "Hg8 mi
1:35 AM48 °FLow clouds.13 mph87%30.18 "Hg7 mi
1:15 AM48 °FLow clouds.12 mph87%30.18 "Hg10 mi
12:55 AM48 °FLow clouds.14 mph87%30.18 "Hg10 mi
12:35 AM48 °FMostly cloudy.13 mph87%30.19 "Hg10 mi
12:15 AM48 °FMostly cloudy.13 mph87%30.20 "Hg9 mi
11:35 PM
Mon, Jun 1
48 °FLow clouds.14 mph87%30.21 "Hg3 mi
10:55 PM48 °FLow clouds.15 mph87%30.21 "Hg5 mi
10:35 PM48 °FLow clouds.13 mph87%30.22 "Hg10 mi
10:15 PM48 °FLow clouds.16 mph87%30.22 "Hg10 mi
9:55 PM48 °FLow clouds.15 mph87%30.22 "Hg10 mi
9:35 PM48 °FLow clouds.16 mph87%30.22 "Hg8 mi
9:15 PM48 °FLow clouds.18 mph87%30.21 "Hg6 mi
8:55 PM48 °FLow clouds.13 mph87%30.22 "Hg5 mi
8:35 PM48 °FLow clouds.15 mph87%30.22 "Hg5 mi
8:15 PM48 °FLow clouds.13 mph87%30.22 "Hg10 mi
7:55 PM48 °FLow clouds.17 mph87%30.22 "Hg8 mi
7:35 PM48 °FLow clouds.14 mph87%30.23 "Hg5 mi
7:15 PM48 °FLow clouds.13 mph87%30.23 "Hg5 mi
6:55 PM48 °FLow clouds.18 mph87%30.22 "Hg4 mi
6:35 PM48 °FLow clouds.17 mph87%30.21 "Hg3 mi
6:15 PM48 °FLow clouds.16 mph87%30.21 "Hg10 mi
5:55 PM48 °FLow clouds.20 mph87%30.22 "Hg9 mi
5:35 PM48 °FLow clouds.20 mph87%30.20 "Hg9 mi
5:15 PM48 °FLow clouds.22 mph87%30.22 "Hg10 mi
4:55 PM48 °FMostly cloudy.18 mph87%30.21 "Hg10 mi
4:35 PM48 °FMostly cloudy.18 mph87%30.22 "Hg10 mi
4:15 PM48 °FMostly cloudy.18 mph87%30.22 "Hg9 mi
3:55 PM48 °FMostly cloudy.20 mph87%30.22 "Hg5 mi
3:35 PM50 °FMostly cloudy.20 mph88%30.23 "Hg6 mi
3:15 PM50 °FMostly cloudy.22 mph88%30.23 "Hg4 mi
2:55 PM48 °FMostly cloudy.18 mph94%30.23 "Hg3 mi
2:35 PM50 °FLow clouds.17 mph88%30.23 "Hg2 mi
2:15 PM50 °FLow clouds.18 mph88%30.22 "Hg3 mi
1:55 PM52 °FLow clouds.17 mph82%30.22 "Hg3 mi
1:35 PM52 °FLow clouds.12 mph82%30.22 "Hg2 mi
1:15 PM52 °FLow clouds.13 mph82%30.22 "Hg2 mi
12:55 PM52 °FLow clouds.14 mph82%30.21 "Hg2 mi
12:35 PM52 °FLow clouds.12 mph82%30.23 "Hg3 mi
12:15 PM52 °FLow clouds.10 mph82%30.22 "Hg2 mi
11:55 AM52 °FLow clouds.13 mph82%30.22 "Hg2 mi
11:35 AM52 °FLow clouds.12 mph82%30.23 "Hg2 mi
11:15 AM52 °FLow clouds.10 mph82%30.23 "Hg5 mi
10:55 AM52 °FLow clouds.12 mph82%30.22 "Hg5 mi
10:35 AM50 °FLow clouds.13 mph88%30.22 "Hg3 mi
10:15 AM52 °FLow clouds.16 mph82%30.22 "Hg4 mi
9:55 AM52 °FLow clouds.15 mph82%30.22 "Hg7 mi
9:35 AM52 °FLow clouds.12 mph82%30.23 "Hg6 mi
9:15 AM52 °FLow clouds.14 mph77%30.23 "Hg9 mi
Weather by CustomWeather, © 2015

See weather overviewHow to use our weather pages